C/2013 C2 ( Tenagra )

Japanese version
Home page
Updated on October 12, 2025

---------------------------------------------------------------------

* Profile

Discovery Date February 14, 2013
Magnitude 19.0 mag
Discoverer P. R. Holvorcem, M. Schwartz (Tenagra Observatory)

* Pictures

* Orbital Elements

Epoch 2015 Sept. 15.0 TT = JDT 2457280.5
T 2015 Aug. 30.30069 TT                                 Rudenko
q   9.1309410            (2000.0)            P               Q
n   0.01531407     Peri.  308.79106     -0.91034984     +0.24124802
a  16.0598793      Node   247.52497     -0.16367494     -0.95614869
e   0.4314440      Incl.   21.33906     -0.38009695     -0.16606949
P  64.4
From 493 observations 2013 Feb. 14-2019 June 29, mean residual 0".7.

* Magnitudes Graph

        m1 =   -1.0 + 5 log d +  15.0 log r  [    ,3684]  (             - 2025 Sept.30)
        m1 = -105.5 + 5 log d + 100   log r  [3684,    ]  (2025 Sept.30 -             )

---------------------------------------------------------------------

The orbital elements are published on M.P.E.C. 2021-F20.
The magnitudes graphs are made with Comet for Windows.

---------------------------------------------------------------------

Copyright(C) Seiichi Yoshida (comet@aerith.net). All rights reserved.